www.pogodaiklimat.ru

Погода и климат >> Архив погоды >> Россия >> Якутия >> Юрты


ПОГОДА в Юртах

  • Прогноз погоды в Юртах
  • Монитор погоды в Юртах
  • Климат города

АРХИВ ПОГОДЫ в Юртах

Время (UTC), дата Ветер
(напр.,м/с)
 
Видим.   Явления Облачность Т
(С)
Тd
(С)
f
(%)
Тe
(С)
Тes
(С)
Комфортность P
(гПа)
Po
(гПа)
Тmin
(С)
Tmax
(С)
R
(мм)
R24
(мм)
S
(см)
21 14.11 штиль 0 50 км 10/0
[Cs]
-25.3 -27.2 84 -25 -25 1034.7 954.5 -29.7 20
00 15.11 штиль 0 50 км 10/0
[Cs]
-27.4 -28.5 90 -27 -27 1035.6 954.5
03 15.11 ЮВ 2 50 км 10/0
[As trans Cs]
-24.5 -26.4 84 -31 -31 опасность
обморожения
1033.3 953.4
06 15.11 штиль 0 50 км 10/0
[As trans Cs]
-23.9 -25.7 85 -24 -24 1031.8 952.2
09 15.11 штиль 0 50 км 10/0
[As trans]
-24.4 -26.2 85 -24 -24 1031.5 951.7 -23.4
12 15.11 штиль 0 50 км 10/0
[As trans]
-24.5 -26.4 84 -25 -25 1030.5 950.8
15 15.11 штиль 0 50 км 10/0
[Cs]
-24.1 -26.0 84 -24 -24 1029.6 950.1
18 15.11 штиль 0 50 км 10/0
[Cs]
-26.4 -28.2 85 -26 -26 1029.9 949.6
21 15.11 СЗ 1 50 км 10/0
[Cs]
-25.2 -26.4 90 -29 -29 1028.6 948.9 -27.0 20
00 16.11 штиль 0 50 км 10/0
[Cs]
-25.4 -27.2 85 -25 -25 1028.5 948.6
03 16.11 штиль 0 50 км 10/0
[Cs]
-23.3 -25.1 85 -23 -23 1027.0 948.0
06 16.11 штиль 0 50 км 10/0
[Cs]
-23.3 -25.1 85 -23 -23 1027.0 948.0
09 16.11 СЗ 1 50 км 10/0
[Cs]
-25.8 -27.0 90 -29 -29 1027.8 948.0 -21.9
12 16.11 штиль 0 50 км 10/0
[As trans]
-25.8 -27.0 90 -26 -26 1028.1 948.3
15 16.11 штиль 0 50 км 10/0
[As trans]
-26.3 -27.4 90 -26 -26 1028.3 948.3
18 16.11 штиль 0 50 км 10/0
[Cs]
-26.8 -28.1 89 -27 -27 1028.4 948.3
21 16.11 штиль 0 50 км 10/0
[Cs]
-26.8 -28.1 89 -27 -27 1028.4 948.3 -27.6 20
00 17.11 штиль 0 20 км слабый снег 10/0
[Cs]
-27.1 -28.2 90 -27 -27 1029.1 948.7
03 17.11 штиль 0 50 км {снег} 10/0
[As trans Cs]
-26.5 -27.7 90 -27 -26 1028.3 948.2
06 17.11 штиль 0 50 км {снег} 10/0
[As op]
-26.0 -27.1 90 -26 -26 1027.8 947.8
09 17.11 штиль 0 50 км 10/0
[As trans]
-26.6 -27.7 90 -27 -27 1028.3 948.2 -26.0 0.3
12 17.11 штиль 0 50 км 10/0
[As trans]
-27.3 -28.5 89 -27 -27 1028.5 948.5
15 17.11 штиль 0 50 км 10/0
[Cs]
-27.9 -29.1 89 -28 -28 1029.4 949.0
18 17.11 штиль 0 50 км 10/0
[As trans]
-27.9 -29.1 89 -28 -28 1029.7 949.0
21 17.11 штиль 0 50 км 10/0
[As op]
-27.8 -29.1 89 -28 -28 1029.5 948.9 -27.9 21
00 18.11 штиль 0 50 км 10/0
[As trans]
-28.1 -29.2 90 -28 -28 1029.3 948.6
03 18.11 штиль 0 50 км 10/0
[As trans Cs]
-28.9 -30.6 85 -29 -29 1029.3 948.3
06 18.11 штиль 0 50 км 10/0
[Cs]
-30.0 -31.7 85 -30 -30 1029.1 947.8
09 18.11 штиль 0 50 км 10/0
[Cs]
-32.0 -33.7 85 -32 -32 опасность
обморожения
1029.6 947.6 -27.8
12 18.11 штиль 0 50 км 10/0
[Ci fib]
-32.2 -34.0 84 -32 -32 опасность
обморожения
1029.6 947.6
15 18.11 штиль 0 50 км 10/0
[Ci fib]
-33.3 -35.0 85 -33 -33 опасность
обморожения
1028.7 946.3
18 18.11 штиль 0 50 км 6/0
[Ci fib]
-34.5 -36.2 84 -35 -35 опасность
обморожения
1029.9 947.1
21 18.11 штиль 0 50 км 10/0
[Ci fib]
-34.8 -36.5 84 -35 -35 опасность
обморожения
1029.9 946.9 -34.8 21
00 19.11 штиль 0 50 км 10/0
[As op]
-32.2 -34.0 84 -32 -32 опасность
обморожения
1029.0 947.1
03 19.11 штиль 0 50 км 4/0
[Ci fib]
-32.0 -33.7 85 -32 -32 опасность
обморожения
1028.3 946.4
06 19.11 штиль 0 50 км 10/0
[Ci fib]
-34.6 -36.2 85 -35 -35 опасность
обморожения
1028.2 946.1
09 19.11 штиль 0 50 км 4/0
[Ci fib]
-37.6 -39.3 84 -38 -38 опасность
обморожения
1029.9 946.1 -32.0
12 19.11 штиль 0 50 км 3/0
[Ci fib]
-38.0 -39.7 84 -38 -38 опасность
обморожения
1029.8 945.8
15 19.11 штиль 0 50 км ясно -40.0 -41.6 85 -40 -40 опасность
обморожения
1030.1 945.4
18 19.11 штиль 0 50 км ясно -41.8 -43.2 86 -42 -42 опасность
обморожения
1030.3 944.9
21 19.11 штиль 0 50 км ясно -43.4 -45.1 83 -43 -43 опасность
обморожения
1030.3 944.4 -43.4 21
00 20.11 штиль 0 50 км 8/0
[Ci fib]
-41.8 -43.2 86 -42 -42 опасность
обморожения
1029.1 943.8
03 20.11 штиль 0 50 км 5/0
[Ci fib]
-38.2 -39.7 86 -38 -38 опасность
обморожения
1026.7 943.0
06 20.11 штиль 0 50 км 4/0
[Ci fib]
-39.4 -41.1 84 -39 -39 опасность
обморожения
1027.0 942.2
09 20.11 Ю 1 50 км 9/0
[Ac trans]
-36.1 -37.8 84 -41 -41 опасность
обморожения
1024.6 941.7 -36.1
12 20.11 Ю 1 50 км 10/0
[As trans]
-34.4 -36.2 84 -39 -39 опасность
обморожения
1024.0 941.6
15 20.11 штиль 0 50 км 10/0
[Cs]
-34.4 -36.2 84 -34 -34 опасность
обморожения
1022.4 941.6
18 20.11 штиль 0 50 км 10/0
[Cs]
-34.6 -36.2 85 -35 -35 опасность
обморожения
1023.6 941.3
21 20.11 штиль 0 50 км 10/0
[Ci fib]
-39.0 -40.6 85 -39 -39 опасность
обморожения
1025.1 941.2 -39.0 21
00 21.11 СЗ 1 50 км 10/0
[Cs]
-34.1 -35.9 84 -39 -39 опасность
обморожения
1023.9 941.7 -39.7
03 21.11 штиль 0 50 км 8/0
[Ac trans Ci fib]
-31.8 -33.5 85 -32 -32 опасность
обморожения
1023.4 941.9
06 21.11 штиль 0 50 км 10/0
[Cs]
-31.0 -31.8 93 -31 -31 опасность
обморожения
1023.9 942.7
09 21.11 штиль 0 50 км 10/0
[Cs]
-34.9 -36.5 85 -35 -35 опасность
обморожения
1026.9 944.2 -31.0
12 21.11 штиль 0 50 км 3/0
[Ci fib]
-37.5 -39.9 78 -38 -38 опасность
обморожения
1028.8 945.1
15 21.11 штиль 0 50 км 10/0
[Cs]
-38.0 -40.3 79 -38 -38 опасность
обморожения
1029.7 945.7

 

Местоположение метеостанции Юрты (Якутия, Россия): широта 64.05 долгота 141.80 высота над уровнем моря 590 м.

В архиве по умолчанию представлена погода в Юртах за последнюю неделю. Архивные данные за месяц целиком и за предыдущие месяцы, начиная с января 2011 года, Вы можете получить, выбрав интересующий диапазон дат из раскрывающегося списка и нажав кнопку "Ввод!".


*Определитесь, кто Вы:
робот инопланетянин человек

Внимание! Время в таблицах - всемирное. Для получения местного времени необходимо прибавить поправку, которая в Юртах равна 10 ч.

Смотрите также архив погоды в соседних городах и на ближайших метеорологических станциях:

Погода в Агаякане (Якутия, Россия) (80 км)
Погода в Усть-Нере (Якутия, Россия) (82 км)
Погода в Оймяконе (Якутия, Россия) (110 км)
Погода в Восточной (Якутия, Россия) (142 км)
Погода в Делянкире (Якутия, Россия) (187 км)
Погода в Усть-Моме (Якутия, Россия) (275 км)
Погода в Теплом Ключе (Якутия, Россия) (286 км)
Погода в Томпо (Якутия, Россия) (293 км)
Погода в Иэме (Якутия, Россия) (317 км)
Погода в Сусумане (Магаданская область, Россия) (344 км)

Пояснения к столбцам:

Ветер - указаны скорость ветра в м/с - средняя за 10 мин, порывы в срок и между сроками (в фигурных скобках) и направление, откуда дует ветер: С - северный, СВ - северо-восточный, В - восточный, ЮВ - юго-восточный, Ю - южный, ЮЗ - юго-западный, З - западный, СЗ - северо-западный.
Видимость - горизонтальная дальность видимости в метрах или километрах. При видимости от 1 до 10 км при отсутствии осадков обычно наблюдается дымка, при ухудшении видимости до 1 км и менее - туман. В сухую погоду видимость может ухудшаться дымом, пылью или мглою.
Явления - указаны атмосферные явления, наблюдавшиеся в срок или в последний час перед сроком; фигурными скобками обозначены явления, наблюдавшиеся между сроками (за 1-3 часа до срока); квадратными скобками обозначены град или гололедные отложения с указанием их диаметра в мм.
Облачность - указаны через наклонную черту общая и нижняя облачность в баллах и высота нижней границы облаков в метрах; квадратными скобками обозначены формы облаков: Ci - перистые, Cs - перисто-слоистые, Cc - перисто-кучевые, Ac - высококучевые, As - высокослоистые, Sc - слоисто-кучевые, Ns - слоисто-дождевые, Cu - кучевые, Cb - кучево-дождевые. Подробнее классификацию облаков см. в Атласе облаков (PDF).
T - Температура воздуха - температура, измеренная на высоте 2 м над землей.
Td - Температура точки росы - температура, при понижении до которой содержащийся в воздухе водяной пар достигнет насыщения.
f - Относительная влажность воздуха - влажноcть воздуха, измеренная на высоте 2 м над землей.
Te - Эффективная температура - температура, которую ощущает одетый по сезону человек в тени. Характеристика душности погоды. При расчете учитывается влияние влажности воздуха и скорости ветра на теплоощущения человека.
Tes - Эффективная температура на солнце - температура, которую ощущает человек, с поправкой на солнечный нагрев. Характеристика знойности погоды. Зависит от высоты солнца над горизонтом, облачности и скорости ветра. Ночью, в пасмурную погоду, а также при ветре 12 м/с и более поправка равна нулю.
P - Атмосферное давление - приведенное к уровню моря атмосферное давление.
Po - Атмосферное давление - измеренное на уровне метеостанции атмосферное давление.
Tmin - Минимальная температура - минимум температуры воздуха на высоте 2 м над землей.
Tmax - Максимальная температура - максимум температуры воздуха на высоте 2 м над землей.
R - Количество осадков - Количество выпавших осадков за период времени, мм. При наведении курсора мыши на число - период времени, за который выпало указанное количество осадков.
R24 - Количество осадков - Количество выпавших осадков за 24 часа, мм.
S - Снежный покров - Высота снежного покрова, см. При наведении курсора мыши на число - состояние снежного покрова и степень покрытия местности в баллах.